Miscellaneous Local Product
Issued by NWS North Platte, NE

Home | Current Version | Previous Version | Graphics & Text | Print | Product List | Glossary On
Versions: 1 2 3 4 5 6 7 8 9 10 11 12 13 14 15 16 17 18 19 20 21 22 23 24 25 26 27 28 29 30 31 32 33 34 35 36 37 38 39 40 41 42 43 44 45 46 47 48 49 50
000
AXUS43 KLBF 261710
MISLBF


WESTERN AND NORTH CENTRAL NEBRASKA HOURLY WEATHER ROUNDUP
NATIONAL WEATHER SERVICE NORTH PLATTE NE
1200 PM CDT SUN MAR 26 2017

NOTE: "FAIR" INDICATES FEW OR NO CLOUDS BELOW 12,000 FEET WITH NO
SIGNIFICANT WEATHER AND/OR OBSTRUCTIONS TO VISIBILITY.

NOTE: STATIONS NOT REPORTING VARIABLES SUCH AS SKY/WEATHER OR
PRESSURE ARE PROVIDED BY RAWS AND APRS NETWORKS AND ARE NOT UNDER
NATIONAL WEATHER SERVICE QUALITY CONTROL.

...OBSERVATIONS IN AND NEAR THE EASTERN PANHANDLE OF NEBRASKA...

CITY           SKY/WX    TMP DP  RH WIND       PRES   REMARKS
PINE RIDGE     CLOUDY    49  38  65 N10       29.91R
CHADRON        CLOUDY    48  36  63 N15       29.92R
ALLIANCE       CLOUDY    49  34  56 N5        29.89R
SIDNEY         CLOUDY    45  37  73 S6        29.91R
CRESCENT LAKE    N/A     42  42 100 W16G26      N/A
$$

...OBSERVATIONS IN NORTHERN NEBRASKA AND FAR SOUTHERN SOUTH DAKOTA...

CITY           SKY/WX    TMP DP  RH WIND       PRES   REMARKS
WINNER         CLOUDY    43  39  86 E8        29.93S
VALENTINE      PTSUNNY   49  38  65 NE9       29.90R
THEDFORD       PTSUNNY   47  41  80 CALM      29.90S
AINSWORTH      CLOUDY    42  40  92 CALM      29.91S
O`NEILL        CLOUDY    41  41  99 CALM      29.94R FOG
ORD            CLOUDY    43  38  82 CALM      29.92S
BROKEN BOW     CLOUDY    46  42  86 CALM      29.91R
VALENTINE NWR    N/A     45  42  89 S6          N/A
HALSEY           N/A     49  41  73 CALM        N/A
BUTTE            N/A     39  38  97 CALM        N/A
CHAMBERS         N/A     46  43  90 CALM        N/A
EWING            N/A     41  41  99 W3          N/A
$$

...OBSERVATIONS IN SOUTHWEST NEBRASKA AND FAR NORTHEAST COLORADO...

CITY           SKY/WX    TMP DP  RH WIND       PRES   REMARKS
HOLYOKE        FAIR      46  43  87 N5        29.89S
IMPERIAL       LGT RAIN  42  39  89 NE6       29.90R
OGALLALA       CLOUDY    49  44  80 SW7       29.90R
NORTH PLATTE   CLOUDY    44  39  82 VRB3      29.92R
MCCOOK         CLOUDY    42  40  92 N6        29.91R
LEXINGTON      CLOUDY    42  39  89 E5        29.92S
STAPLETON        N/A     44  39  84 CALM        N/A
GOTHENBURG       N/A     44  36  73 E3          N/A
CALLAWAY         N/A     42  40  91 SE3         N/A
$$

...OBSERVATIONS IN CENTRAL LINCOLN COUNTY AREA...

CITY           SKY/WX    TMP DP  RH WIND       PRES   REMARKS
N.P. AIRPORT   CLOUDY    44  39  82 VRB3      29.92R
N.P. DOWNTOWN    N/A     42  39  90 CALM        N/A
N.P. SOUTHEAST   N/A     42  39  88 CALM        N/A
N.P. HILLCREST   N/A     42  40  92 CALM        N/A
$$

...SOME OBSERVATIONS FROM AROUND THE REGION...

CITY           SKY/WX    TMP DP  RH WIND       PRES   REMARKS
DENVER         CLOUDY    51  34  52 N18G28    29.89R
LIMON          CLOUDY    44  38  79 N13       29.86R
ASPEN          CLOUDY    40  33  76 VRB3      29.95F
LARAMIE        CLOUDY    37  33  85 N17G25    29.93R WCI  27
CASPER         CLOUDY    41  36  82 NW7       29.98R
CHEYENNE       CLOUDY    38  34  85 N14       29.92R WCI  30
SCOTTSBLUFF    PTSUNNY   52  32  46 N14       29.91R
GRAND ISLAND   CLOUDY    43  42  97 NW3       29.93F
OMAHA          CLOUDY    44  38  79 NW7       29.94R
SIOUX FALLS    CLOUDY    43  38  82 NE6       29.93S
PIERRE         CLOUDY    41  37  86 SE8       29.94R
RAPID CITY     LGT RAIN  42  38  85 N16       29.93R
BISMARCK       MOSUNNY   51  38  60 W5        29.93F
KANSAS CITY    CLOUDY    47  44  90 W7        29.93S
HILL CITY      CLOUDY    44  42  93 E13       29.90S
WICHITA        CLOUDY    49  45  86 E12       29.89F
DODGE CITY     CLOUDY    43  42  97 E15G22    29.80F FOG
OKLAHOMA CITY  CLOUDY    67  48  50 SE22G28   29.83F
DALLAS         MOSUNNY   76  62  62 S16       29.85F
AMARILLO       SUNNY     69  30  23 W22G30    29.72F
$$




USA.gov is the U.S. government's official web portal to all federal, state and local government web resources and services.